Texas Shootout - INVENTORY

Station: HAND INVENTORY - T Race

Distance: 1 Miles

Release: 03-Aug-2017 08:30

Weather Release:    Arrival:

Wind at Release:     Wind at Arrival:

Temp at Release: °    Temp at Arrival: °

Lofts: 162

Birds: 970

Clocked: 964

PULL FLIGHTS AND HAND INVENTORY THE REST TOMORROW
Drops Pos Breeder Pigeon Name Color Sex Ent Arrival Speed To Win Eligible
1 Tulsa Racers - OK 0776-AU17-TULS BBWF H 1 08:36:17.49 279.743 00:00:00 Yes
2 The Firm - TX 1188-IF17-KOLV Dark Queen Of Dallas DC H 1 08:36:27.19 272.734 00:00:10 Yes
3 The Firm - TX 0338-AU17-WWC Tuchus BB H 2 08:36:32.35 269.147 00:00:15 Died
4 Fleet Washington - DC 1776-AU17-FLTW BB C 1 08:36:50.05 257.530 00:00:33 Died
5 Dream Team - FL 0670-AU17-JCZL BB H 1 08:36:59.06 251.993 00:00:42 Died
6 Richard Callahan - MO 37949-AU17-AA DC C 1 08:37:04.00 249.057 00:00:47 Died
7 Timberline Speed Loft - TX 0821-AU17-TSL BBWF C 1 08:37:10.38 245.365 00:00:53 Died
8 West Wing Syndicate - TX 1159-AU17-WWC BB C 1 08:37:24.45 237.597 00:01:07 Died
9 Bill Kluge - TX 1770-AU17-COLD BB H 1 08:37:29.33 235.017 00:01:12 Died
10 R P S Loft - CA 2547-AU17-SFR BB C 1 08:37:42.35 228.398 00:01:25 Yes
11 Nemeth Loft - CA 8778-AU17-BON BCWF C 1 08:37:53.86 222.851 00:01:36 Died
12 Drama Queen Loft - TX 1276-AU17-GCI BC C 1 08:38:01.16 219.470 00:01:44 Died
13 Dream Team - FL 0396-AU17-JCZL 85x1000 BB H 2 08:38:04.55 217.934 00:01:47 Died
14 Cuevas Classic - TX 0090-AU17-DAL Tony's Chocolate SIL H 1 08:38:09.70 215.642 00:01:52 Died
15 Bill Kluge - TX 1728-AU17-COLD BB H 2 08:38:21.00 210.778 00:02:04 Died
16 Wessel Family Lofts - CA 1463-AU17-ARC BC H 1 08:43:12.95 133.174 00:06:55 Yes
17 Buck`S - TX 34102-AU17-AA SLAT C 1 08:47:35.27 100.069 00:11:18 Yes
18 Floating Feather Loft - TX 1344-AU17-CVL BBWF H 1 08:48:10.13 96.869 00:11:53 Yes
19 H & H Loft - TX 6959-AU17-VK BB H 1 08:48:43.38 94.002 00:12:26 Yes
20 Barry Venn - WY 1939-AU17-VENN BCPD H 1 08:49:46.95 88.968 00:13:29 Yes
21 Arandas Loft - TX 14352-AU17-ARPU BB C 1 08:50:50.50 84.446 00:14:33 Died
22 Southern Legacy Loft - TX 0429-AU17-SLL BB H 1 08:51:26.89 82.058 00:15:09 Yes
23 Crestview Loft - TX 1332-AU17-CVL BB H 1 08:51:58.99 80.061 00:15:42 Yes
24 Tex-Mex Loft - TX 0613-AU17-NSL BB H 1 08:52:32.08 78.102 00:16:15 Yes
25 Sky Dancer Loft - TX 0333-AU17-WWC Bolero BB H 1 08:53:03.19 76.345 00:16:46 Yes
26 A D L Loft - IL 0176-AU17-ADL BB C 1 08:53:45.08 74.101 00:17:28 Yes
27 Bill Wisdom - TX 0345-AU17-DEN BB H 1 08:54:17.11 72.472 00:18:00 Yes
28 Baden Feed - ON 1026-IF17-LCC GRIZ H 1 08:55:56.36 67.851 00:19:39 Yes
29 Utaz Team - UT 0985-AU17-PSC BB C 1 08:56:29.49 66.436 00:20:12 Yes
30 Larry Payne - KS 0275-AU17-LPL BB H 1 08:57:10.10 64.781 00:20:53 Yes
31 Southern Legacy Loft - TX 0428-AU17-SLL BB H 2 08:57:57.24 62.961 00:21:40 Yes
32 Wind Chaser - MI 1690-AU17-GRM BC H 1 08:58:31.72 61.692 00:22:14 Yes
33 Vick Corso - LA 1313-AU17-CRSO BC C 1 08:59:02.83 60.591 00:22:45 Yes
34 Hugo Family Loft - IL 93088-IF17-E BB C 1 09:36:12.39 26.583 00:59:55 Yes
35 Liqingni Loft - NY 0287-AU17-YANG BB H 1 09:36:45.70 26.362 01:00:28 Yes
36 Dream Team - FL 0788-AU17-JCZL GRIZ H 3 09:37:13.30 26.182 01:00:56 Yes
37 Cajun Express Loft - LA 10962-AU17-AA BCPD H 1 09:37:37.95 26.023 01:01:20 Yes
38 Zhenyuan Guo - SC 0690-AU17-GUO BC H 1 09:38:00.61 25.878 01:01:43 Yes
39 Y Mtn Loft - TN 26200-AU17-YMTN BB C 1 09:38:26.95 25.713 01:02:09 Yes
40 Milestone Loft - CA 0175-AU17-SD BB H 1 09:38:55.44 25.535 01:02:38 Yes
41 K & J Loft - OK 1725-AU17-VK BB H 1 09:39:15.89 25.410 01:02:58 Yes
42 Carroll Hoover - PA 1137-IF17-RLPC BB H 1 09:39:41.88 25.252 01:03:24 Yes
43 Flying D Loft - TX 0339-AU17-FLYD BC H 1 09:40:07.92 25.096 01:03:50 Yes
44 Baldwin / Tilson - NC 7220-AU17-TNTL BBWF H 1 09:40:31.70 24.955 01:04:14 Yes
45 Little Reata Loft - TX 17329-AU17-JETT BB H 1 09:40:50.20 24.846 01:04:33 Yes
46 Liu Loft - NC 8884-AU17-LIU BC C 1 09:41:14.53 24.704 01:04:57 Yes
47 French Camp Connection - CA 71924-AU17-MAN BC H 1 09:41:38.91 24.564 01:05:21 Yes
48 Zhenyuan Guo - SC 0684-AU17-GUO BC H 2 09:42:07.58 24.402 01:05:50 Yes
49 The Firm - TX 1185-IF17-KOLV Jubilea DCWF C 3 09:42:39.86 24.221 01:06:22 Yes
50 Bionic Loft - LA 0633-AU17-CAJN BC H 1 09:43:07.45 24.069 01:06:50 Yes
51 Chinese Union 2 - VA 0657-AU17-ZHEN BBWF H 1 09:43:34.63 23.920 01:07:17 Yes
52 Da Dong - WI 1193-AU17-RRP BB C 1 09:44:03.60 23.765 01:07:46 Yes
53 Zhenyuan Guo - SC 0688-AU17-GUO BC H 3 09:44:33.27 23.607 01:08:16 Yes
54 Quest Syndicate - TX 16001-AU17-QS BC H 1 09:44:54.61 23.495 01:08:37 Yes
55 Richard Callahan - MO 1683-AU17-AA BB H 2 09:45:19.99 23.363 01:09:02 Yes
56 Kim Wong - VT 10890-AU17-ARPU BC H 1 09:45:47.64 23.221 01:09:30 Yes
57 Racing Pigeon Mall - WA 0711-AU17-RPM BB C 1 09:46:15.75 23.078 01:09:58 Yes
58 Relax & Barger - CA 71958-AU17-MAN CWFP C 1 09:46:45.70 22.928 01:10:28 Yes
59 Utaz Boys/ Jones - UT 1082-AU17-SLI BB H 1 09:47:14.85 22.784 01:10:57 Yes
60 Sonder Loft - CA 21715-AU17-JEDD BC H 1 09:47:40.00 22.661 01:11:22 Yes
61 Dream Team - FL 0551-AU17-JCZL BBWF C 4 09:48:01.06 22.559 01:11:44 Yes
62 Baden Feed - ON 90306-IF17-E GRIZ C 2 09:48:31.28 22.414 01:12:14 Yes
63 Sandstrom Brothers Loft - MN 0788-AU17-SBL BC C 1 09:48:56.61 22.294 01:12:39 Yes
64 Jokers Wild - CA 0342-AU17-JOKE BB H 1 09:49:26.63 22.154 01:13:09 Yes
65 Kim Wong - VT 10889-AU17-ARPU BC H 2 09:49:52.11 22.036 01:13:35 Yes
66 Robin & Brenda - TX 0337-AU17-WWC Firecracker RCWF H 1 09:50:18.27 21.917 01:14:01 Yes
67 Tex-Mex Loft - TX 0619-AU17-NSL RGRZ H 2 09:50:41.27 21.812 01:14:24 Died
68 Clear Springs Loft - FL 17101-AU17-WARD BB C 1 09:51:17.56 21.650 01:15:00 Yes
69 Baptista - IL 3085-AU17-FOYS BB H 1 09:51:45.72 21.526 01:15:28 Yes
70 Frank Martinez - CA 8202-AU17-FORT BC C 1 09:52:10.95 21.416 01:15:53 Yes
71 Champ Camp - IN 0214-AU17-CAMP BCPD H 1 09:52:45.60 21.266 01:16:28 Yes
72 Holleys Silver Star - TX 0942-AU17-DEN SIL H 1 09:53:06.56 21.177 01:16:49 Yes
73 Carroll Hoover - PA 1130-IF17-RLPC SIL C 2 09:53:35.49 21.055 01:17:18 Yes
74 The Firm - TX 0342-AU17-WWC Yipikaye BC H 4 09:53:59.81 20.953 01:17:42 Yes
75 H & H Loft - TX 6964-AU17-VK BB C 2 09:54:29.08 20.832 01:18:12 Yes
76 Skylinerpl.Com - UT 0947-AU17-UVI BB C 1 09:54:52.24 20.737 01:18:35 Yes
77 Liqingni Loft - NY 0262-AU17-YANG BB C 2 09:55:11.27 20.660 01:18:54 Yes
78 Nemelka Racing Pigeon Loft - UT 7141-AU17-NRPL 4010 x Miss Beaut BC H 1 09:55:35.30 20.564 01:19:18 Yes
79 R P S Loft - CA 1453-AU17-FOYS BBWF C 2 09:56:04.56 20.447 01:19:47 Yes
80 Bynum Family Lofts - TX 0202-AU17-BFL BBPD H 1 09:56:39.67 20.309 01:20:22 Yes
81 K & J Loft - OK 1701-AU17-VK BWFP C 2 09:57:10.53 20.189 01:20:53 Yes
82 Hutchins Loft - TX 0079-AU17-HUCH BC H 1 09:57:41.38 20.071 01:21:24 Yes
83 Perfection Loft - KS 3747-AU17-AA BB C 1 09:58:21.50 19.919 01:22:04 Yes
84 Da Dong - WI 0340-AU17-RAC BB C 2 09:58:52.33 19.804 01:22:35 Yes
85 K & J Loft - OK 1730-AU17-VK BBWF C 3 09:59:16.36 19.715 01:22:59 Yes
86 Tulsa Racers - OK 1500-AU17-REED SIL C 2 09:59:40.69 19.626 01:23:23 Yes
87 New Orleans Boys 2 - LA 0339-AU17-MET DCWF C 1 10:00:10.58 19.517 01:23:53 Yes
88 Kim Wong - VT 10892-AU17-ARPU BB C 3 10:00:43.67 19.399 01:24:26 Yes
89 English Syndicate - UK 3000-AU17-TEX DC H 1 10:01:10.72 19.303 01:24:53 Yes
90 Sandstrom Brothers Loft - MN 0809-AU17-SBL DCPD H 2 10:01:32.35 19.227 01:25:15 Yes
91 New Orleans Boys - LA 0748-AU17-MET BC H 1 10:02:00.83 19.128 01:25:43 Yes
92 Nemeth Loft - CA 8783-AU17-BON BBWF H 2 10:02:33.00 19.017 01:26:15 Yes
93 Southern Legacy Loft - TX 0466-AU17-SLL BB H 3 10:03:03.88 18.912 01:26:46 Yes
94 Little Reata Loft - TX 17344-AU17-JETT BC H 2 10:03:34.05 18.810 01:27:17 Yes
95 Rossi Loft Llc - WI 2088-AU17-KEN BB H 1 10:04:02.52 18.715 01:27:45 Yes
96 Elton Dinga - TX 12149-AU17-AA BB H 1 10:04:27.75 18.632 01:28:10 Yes
97 Cuevas Classic - TX 0056-AU17-DAL Lonestar Lady BB H 2 10:04:54.45 18.544 01:28:37 Yes
98 Ecker/Murphy Syndicate - PA 1605-AU17-GSV BB H 1 10:05:20.22 18.461 01:29:03 Yes
99 Wessel Family Lofts - CA 1449-AU17-ARC BB C 2 10:05:45.75 18.379 01:29:28 Yes
100 Barry Venn - WY 1969-AU17-VENN BBWF C 2 10:06:08.67 18.306 01:29:51 Yes

There are 992 bird records

Note: These Race Results are unofficial and subject to change until verified by the Race Committee and declared final.